Location: Auttagershofen
(48.1940°N, 10.0237°E)
Time: 07:55:11
(UTC+00:00)

Meteor 2-13 Rocket - Pass Details

Date: 18 January 2026
Orbit: 935 x 958 km, 82.5° (Epoch: 14 February)

Event Time Altitude Azimuth Distance (km) Brightness Sun altitude
Rises 04:47:26 0° 346° (NNW) 3,636 7.3 -22.2°
Reaches altitude 10° 04:49:59 10° 342° (NNW) 2,683 6.6 -21.8°
Maximum altitude 04:55:54 53° 268° (W) 1,152 4.5 -20.8°
Drops below altitude 10° 05:01:45 10° 193° (SSW) 2,649 6.7 -19.8°
Sets 05:04:16 0° 189° (S) 3,587 7.5 -19.4°
